Location: Unspecified
(0.0000°N, 0.0000°E)
Time: 01:19:57
(UTC+00:00)

QIANFAN-31 - Pass Details

Date: 09 March 2026
Orbit: 1037 x 1049 km, 89.0° (Epoch: 14 April)

Event Time Altitude Azimuth Distance (km) Brightness Sun altitude
Rises 05:11:58 0° 10° (N) 3,778 ? -14.6°
Reaches altitude 10° 05:14:32 10° 14° (NNE) 2,828 ? -14.0°
Maximum altitude 05:20:54 61° 93° (E) 1,169 ? -12.4°
Drops below altitude 10° 05:27:17 10° 172° (S) 2,843 ? -10.8°
Sets 05:29:51 0° 175° (S) 3,799 ? -10.2°
